User: anonymous   Login
Location: ??????????
(54.4061°N, 22.6114°E)
Time: 18:30:34
(UTC+00:00)
Language:

Cosmos 1937 Rocket - Orbit

View from above orbital plane
View from above orbital plane
View from above satellite
View from above satellite

Ground track
Ground track

The orbit data is extracted from the following two-line orbital elements,

1 19039U 88029B   19345.70247956  .00000009  00000-0  11574-4 0  9992
2 19039  74.0495  68.1434 0023523  13.1234 347.0527 14.38456134661334
Epoch (UTC): 11 December 2019 16:51:34
Eccentricity: 0.0023523
inclination: 74.0495°
perigee height: 747 km
apogee height: 780 km
right ascension of ascending node: 68.1434°
argument of perigee: 13.1234°
revolutions per day: 14.38456134
mean anomaly at epoch: 347.0527°
orbit number at epoch: 66133

The dashed part of the orbit path shows where the satellite is in the earth's shadow,  

DLR